Wind_Speed
20 20 20 20 20 20 19 19 17 15 14 14 13 12 9 8 9 11 16 11 13 15 17 15 14 16 14 11 11 12 8 7 15 16 8 10 10 9 7 11 12 12 12 9 8
21 21 21 22 22 21 22 22 21 19 18 17 16 14 13 11 10 12 9 12 17 19 19 17 17 18 17 17 15 12 11 8 11 7 10 3 10 11 10 10 12 11 12 10 9
21 21 20 21 21 22 23 23 23 21 21 21 20 17 16 15 13 12 14 18 20 16 19 23 22 19 19 20 18 15 9 7 1 1 4 18 5 14 10 12 11 13 13 12 11
24 24 24 24 23 23 23 24 24 24 23 23 23 20 19 16 14 17 15 17 24 24 20 22 23 21 19 20 20 19 11 13 11 6 6 12 17 15 9 7 10 13 14 15 13
27 27 26 26 26 26 26 25 23 23 24 25 25 23 21 17 19 17 19 18 19 25 25 23 23 23 20 22 22 20 19 13 15 6 13 15 13 6 9 9 5 8 13 16 15
30 31 31 31 30 29 29 28 27 25 25 26 26 24 24 18 20 18 19 20 19 21 27 26 23 23 26 27 26 21 18 20 18 7 16 11 16 10 10 10 8 5 11 15 18
31 32 33 33 34 34 33 32 32 31 28 28 29 26 23 26 21 19 21 19 21 20 24 29 28 28 29 30 26 25 22 26 24 22 20 9 22 10 16 11 10 7 8 13 16
28 30 31 32 34 36 36 37 37 35 34 32 30 30 20 30 22 23 23 20 21 20 23 28 33 31 30 31 32 30 29 26 23 22 20 15 11 19 24 12 8 8 9 11 14
33 35 34 35 34 33 35 36 39 40 40 37 35 32 26 27 25 29 25 23 23 24 23 27 33 33 34 34 36 34 32 30 20 23 20 18 22 19 15 24 10 10 10 10 12
39 40 41 41 40 40 39 38 37 39 41 43 42 37 34 31 31 28 28 28 27 27 28 25 29 37 38 35 29 32 34 28 25 23 22 19 19 21 26 20 11 12 9 11 12
42 44 44 46 48 48 45 44 43 43 39 42 45 42 39 35 33 32 32 32 32 30 29 29 30 27 33 34 31 28 28 28 23 25 26 19 24 24 25 27 9 23 16 9 14
47 48 51 52 53 52 51 53 51 50 45 42 43 43 45 43 39 36 37 36 33 28 30 35 24 21 27 36 34 32 27 24 22 20 27 25 29 29 24 17 21 16 11 12 14
58 60 61 60 62 64 61 60 60 59 56 46 46 44 40 50 43 42 40 37 34 33 31 28 20 26 28 33 40 36 34 28 23 23 30 24 32 27 25 25 25 28 18 14 11
64 64 62 61 68 67 71 73 69 63 63 56 53 52 50 48 51 44 45 42 40 36 31 32 32 29 29 32 38 40 33 33 29 25 29 28 28 27 31 24 25 21 29 18 13
43 37 40 44 40 42 46 53 63 71 54 40 59 54 54 53 46 48 48 49 45 38 40 34 34 34 35 30 35 36 35 37 37 33 30 33 33 31 30 26 21 31 30 25 11
35 40 41 44 48 49 49 48 52 51 40 21 44 56 57 54 54 52 53 52 46 45 45 38 36 39 32 31 26 28 34 34 39 32 41 38 31 29 33 25 20 24 18 20 14
40 44 49 52 52 49 48 46 54 48 21 27 44 60 63 64 55 55 57 59 59 57 54 46 43 38 36 35 34 35 38 39 41 49 47 38 38 34 20 26 28 15 22 21 26
46 49 54 49 49 46 43 41 46 49 24 43 55 56 60 63 62 47 58 62 58 58 52 49 49 45 44 42 39 40 38 45 48 45 39 35 37 34 30 25 24 18 26 24 30
52 52 55 50 45 40 38 37 25 38 27 48 58 52 45 45 58 48 53 59 61 59 58 54 50 43 46 44 45 42 44 32 33 25 26 29 25 25 33 39 34 30 29 31 34
56 60 63 47 41 37 36 35 26 34 33 37 51 49 44 47 59 53 54 51 52 60 59 57 35 46 41 46 45 45 34 40 38 34 28 19 24 17 22 34 42 39 30 30 31
66 64 54 39 33 31 32 27 37 37 36 31 50 61 50 49 59 61 53 50 46 38 53 62 49 38 34 49 53 48 44 41 35 35 27 18 19 18 24 23 23 34 41 40 33
48 48 43 30 28 24 23 35 40 37 24 25 37 49 64 47 57 59 61 61 57 56 53 61 63 50 38 45 43 52 48 44 43 40 35 22 18 26 20 26 24 28 35 32 34
49 50 42 37 26 25 29 32 34 30 24 18 17 30 59 59 46 57 59 55 69 64 65 60 71 57 44 38 44 50 53 50 39 35 36 35 21 24 27 23 19 26 37 36 33
51 51 47 35 26 27 32 32 26 28 15 17 15 23 43 68 52 47 57 43 67 70 73 70 72 70 62 56 41 52 50 49 42 41 36 33 24 28 27 30 29 27 35 38 33
49 50 49 38 28 29 31 28 28 25 23 21 17 22 24 49 71 44 40 44 60 74 74 71 70 72 58 44 30 44 50 50 50 38 40 26 32 30 34 26 24 29 30 35 30
46 48 41 42 35 32 31 24 30 30 19 22 21 15 22 28 45 52 35 40 47 67 74 76 67 72 72 54 44 45 44 43 46 44 29 31 22 35 38 31 27 30 30 37 39
43 46 43 42 37 33 30 26 26 30 18 10 16 22 22 23 36 61 40 31 44 60 72 72 70 75 73 61 52 42 50 40 41 40 38 38 29 23 32 36 26 32 37 38 40
Wind_Direction
304 304 303 300 298 297 294 292 291 285 286 288 290 290 289 279 265 239 230 236 232 230 223 218 216 211 188 196 203 191 217 282 154 150 355 298 281 236 249 245 245 243 224 213 228
304 303 302 300 299 295 291 288 287 285 281 280 281 281 279 271 265 254 253 225 222 225 219 221 217 211 196 203 206 195 217 165 172 163 230 272 317 286 270 251 255 250 233 218 211
305 303 301 300 299 296 290 288 286 283 280 276 274 276 275 268 259 266 242 220 218 218 224 227 226 214 204 203 207 209 191 103 100 233 172 251 178 294 279 261 258 241 239 230 222
297 296 297 297 296 294 292 288 286 285 280 277 274 271 272 269 262 254 245 230 228 225 232 234 233 229 218 213 216 213 196 212 171 282 281 283 137 275 286 274 262 256 239 234 229
291 291 290 289 289 290 290 287 285 284 283 280 277 274 269 268 261 257 247 242 236 229 224 227 231 226 221 213 219 227 199 232 287 188 260 252 161 203 285 300 313 275 258 246 236
289 288 287 285 284 283 282 282 282 279 278 280 279 275 272 267 261 253 253 242 237 231 228 224 227 216 214 212 215 223 233 211 231 217 256 270 289 280 231 318 300 299 282 255 244
296 292 288 284 282 280 277 277 276 276 275 273 274 275 272 258 258 252 254 240 244 233 226 220 219 222 215 218 214 214 214 223 225 216 226 214 232 230 249 248 301 295 287 282 266
305 304 298 291 286 281 277 275 273 271 270 270 270 270 268 262 256 256 248 242 238 236 227 224 220 222 218 214 210 215 222 236 230 224 225 219 246 242 260 300 301 314 309 285 261
301 303 299 294 291 286 281 275 272 269 267 265 264 265 260 263 255 247 250 241 238 236 232 226 224 224 223 218 218 221 224 226 214 237 220 221 204 253 233 150 291 308 314 297 264
297 298 296 292 290 288 284 279 272 268 266 264 262 259 256 252 254 250 247 242 238 232 234 229 226 224 225 226 229 224 229 225 213 232 246 219 234 222 266 228 245 312 294 311 289
294 290 290 291 289 286 280 280 276 270 265 264 261 259 256 249 250 247 244 240 235 232 234 233 232 230 231 231 229 224 226 225 222 198 233 238 244 259 269 195 199 283 256 324 303
297 293 289 287 284 280 277 272 270 269 265 263 263 256 257 249 245 244 244 244 241 238 232 231 229 227 225 222 225 229 219 218 203 222 232 214 228 253 263 262 206 251 237 309 301
300 297 295 293 293 291 281 273 266 264 266 259 262 258 252 250 242 236 241 242 239 232 230 232 220 225 224 218 217 217 217 196 219 202 248 248 220 228 261 266 273 200 281 275 288
313 310 309 307 299 297 291 284 278 264 259 259 249 251 249 250 244 238 234 237 236 234 230 225 220 217 220 220 220 218 212 194 190 216 218 237 240 243 237 244 277 289 279 282 268
320 323 320 315 319 319 310 297 286 273 266 259 246 239 243 245 247 237 237 230 235 232 228 225 224 223 220 217 221 218 212 208 187 208 215 225 228 233 240 239 243 259 272 275 238
323 327 328 324 320 320 322 320 315 287 272 194 231 233 228 233 234 233 229 226 225 232 229 221 219 220 220 223 219 212 209 214 210 211 218 207 229 241 222 241 255 268 271 272 259
322 322 319 318 317 315 313 313 326 324 241 203 219 227 226 225 223 228 224 225 221 221 222 220 216 216 213 216 214 211 206 208 218 220 224 211 215 221 218 243 253 269 254 246 282
319 321 321 317 316 315 311 319 323 330 244 199 208 217 217 219 215 210 222 223 219 221 226 221 217 215 215 217 218 217 212 215 219 223 231 217 233 233 192 197 253 256 245 224 266
327 325 324 321 316 309 310 316 314 317 293 218 212 203 197 198 208 189 214 221 220 220 220 221 223 218 216 218 218 218 219 216 219 228 230 238 248 234 216 199 199 212 228 241 253
324 323 319 318 312 306 309 312 306 301 300 251 236 226 201 196 192 187 193 211 226 217 218 217 225 218 219 223 219 224 222 211 210 210 221 236 244 267 241 221 211 209 209 223 236
330 324 320 320 307 310 316 305 304 302 296 258 240 234 210 190 188 183 184 188 209 219 220 212 203 209 202 217 217 215 213 219 220 218 206 215 242 249 260 257 249 221 217 217 219
342 340 330 327 309 315 315 321 312 312 283 281 240 240 218 191 181 185 178 183 196 196 206 209 208 194 203 226 222 218 220 223 217 212 201 197 211 212 226 245 249 222 219 221 204
347 349 341 324 306 311 325 325 318 325 283 281 263 249 226 209 187 185 181 190 191 191 201 203 198 192 180 195 230 219 216 218 220 214 214 192 209 233 222 210 225 207 206 218 213
346 353 351 336 314 315 329 326 322 323 300 266 267 288 226 222 216 184 187 192 195 194 198 202 199 197 199 203 209 221 216 215 208 217 206 208 215 231 219 222 227 223 209 215 216
344 351 349 346 320 317 330 326 325 326 300 279 290 284 239 226 219 203 183 192 192 195 197 202 200 199 193 196 199 228 221 215 218 212 211 199 202 245 242 226 221 211 210 218 216
344 346 349 343 334 325 332 336 326 334 295 283 268 280 238 240 232 214 177 187 195 199 195 199 197 199 198 179 198 203 234 224 215 197 216 179 215 226 245 205 217 212 214 217 213
342 347 347 340 342 333 332 332 323 328 327 291 276 258 233 238 236 218 190 175 192 195 198 195 198 201 202 184 189 200 196 225 214 207 196 187 172 228 243 250 222 213 216 220 225
Height
5870 5869 5868 5867 5866 5865 5864 5863 5862 5863 5862 5862 5861 5861 5861 5860 5860 5862 5862 5865 5866 5867 5868 5869 5871 5874 5877 5879 5879 5880 5879 5880 5875 5879 5887 5884 5885 5884 5885 5885 5886 5888 5889 5891 5892
5867 5866 5864 5863 5862 5862 5860 5859 5859 5859 5859 5859 5858 5858 5858 5858 5858 5858 5861 5862 5862 5863 5866 5868 5869 5872 5875 5876 5877 5880 5880 5882 5878 5879 5884 5882 5884 5885 5886 5885 5885 5887 5889 5891 5892
5863 5862 5861 5860 5859 5858 5856 5856 5855 5855 5855 5854 5854 5854 5854 5855 5856 5857 5856 5858 5859 5860 5862 5864 5865 5869 5872 5874 5875 5878 5883 5884 5879 5882 5879 5881 5878 5883 5884 5884 5884 5886 5888 5891 5892
5860 5858 5857 5856 5855 5854 5852 5851 5851 5850 5850 5850 5849 5851 5850 5851 5854 5851 5853 5854 5855 5858 5860 5861 5864 5867 5870 5872 5873 5876 5880 5881 5876 5880 5882 5882 5874 5883 5884 5882 5883 5886 5888 5889 5892
5856 5854 5853 5851 5850 5849 5847 5847 5846 5845 5844 5844 5844 5845 5846 5848 5848 5848 5849 5851 5852 5854 5856 5858 5860 5864 5868 5870 5871 5873 5878 5879 5881 5883 5882 5884 5869 5884 5882 5882 5884 5885 5886 5888 5890
5849 5848 5847 5845 5844 5843 5842 5841 5840 5840 5840 5838 5838 5839 5841 5844 5843 5844 5845 5847 5848 5849 5852 5855 5857 5860 5862 5865 5868 5872 5875 5879 5884 5883 5888 5885 5883 5886 5882 5882 5885 5883 5884 5887 5889
5842 5841 5840 5838 5837 5836 5835 5834 5833 5833 5833 5833 5832 5833 5836 5835 5838 5840 5840 5842 5843 5845 5847 5850 5852 5853 5858 5861 5865 5869 5873 5875 5879 5882 5885 5887 5887 5886 5882 5878 5883 5883 5883 5883 5885
5835 5833 5832 5830 5829 5827 5827 5827 5825 5825 5825 5826 5826 5826 5831 5827 5833 5834 5835 5838 5839 5840 5842 5844 5847 5850 5852 5857 5859 5862 5867 5871 5875 5878 5882 5884 5888 5882 5878 5875 5881 5882 5882 5883 5884
5828 5826 5824 5823 5821 5819 5817 5817 5816 5817 5817 5817 5818 5820 5824 5824 5826 5826 5830 5832 5833 5835 5837 5839 5841 5845 5847 5849 5852 5856 5860 5866 5873 5875 5879 5882 5883 5875 5875 5865 5879 5883 5882 5882 5883
5819 5816 5814 5811 5810 5810 5808 5806 5806 5805 5807 5807 5808 5813 5815 5817 5817 5821 5822 5825 5827 5829 5831 5834 5836 5838 5840 5843 5849 5852 5856 5861 5867 5874 5875 5879 5880 5877 5872 5861 5878 5880 5880 5882 5882
5809 5806 5803 5800 5798 5797 5797 5795 5797 5795 5796 5796 5798 5803 5804 5808 5810 5813 5814 5816 5819 5822 5826 5828 5829 5834 5840 5843 5847 5850 5853 5858 5865 5871 5873 5876 5877 5876 5873 5870 5871 5872 5882 5878 5882
5795 5791 5789 5785 5783 5781 5781 5780 5779 5780 5785 5786 5786 5792 5793 5795 5800 5803 5805 5808 5812 5818 5818 5819 5827 5831 5831 5835 5840 5844 5848 5855 5862 5869 5871 5873 5877 5873 5873 5868 5861 5871 5870 5877 5882
5779 5774 5767 5765 5762 5758 5759 5760 5762 5762 5764 5779 5776 5777 5784 5779 5789 5793 5796 5801 5804 5807 5811 5817 5825 5822 5824 5828 5831 5836 5842 5851 5862 5866 5865 5870 5871 5875 5870 5866 5865 5849 5872 5880 5880
5756 5749 5744 5738 5737 5732 5731 5732 5735 5740 5748 5758 5759 5762 5764 5769 5773 5784 5786 5792 5794 5799 5805 5809 5812 5815 5819 5822 5827 5831 5839 5845 5855 5864 5865 5865 5866 5867 5874 5874 5873 5871 5874 5877 5878
5741 5736 5728 5721 5720 5717 5712 5707 5706 5716 5730 5726 5727 5746 5749 5754 5767 5769 5775 5777 5784 5792 5793 5803 5807 5810 5812 5819 5821 5830 5834 5840 5845 5853 5860 5863 5865 5868 5870 5872 5877 5874 5876 5873 5876
5733 5727 5721 5715 5708 5704 5700 5694 5689 5692 5699 5703 5698 5712 5725 5736 5746 5751 5756 5766 5776 5780 5783 5792 5798 5800 5810 5814 5819 5825 5828 5834 5840 5844 5844 5852 5857 5859 5862 5867 5873 5873 5874 5871 5872
5725 5720 5712 5706 5700 5694 5688 5682 5681 5675 5680 5676 5682 5689 5704 5714 5725 5731 5740 5746 5754 5761 5768 5780 5785 5795 5802 5805 5811 5814 5821 5826 5829 5828 5831 5846 5849 5854 5864 5866 5867 5870 5870 5872 5871
5718 5713 5705 5695 5688 5682 5677 5672 5666 5662 5658 5657 5656 5667 5684 5697 5699 5713 5721 5731 5744 5753 5763 5772 5776 5784 5791 5798 5805 5807 5813 5815 5818 5824 5832 5840 5839 5846 5857 5864 5864 5868 5866 5870 5873
5707 5700 5692 5682 5675 5669 5666 5661 5658 5650 5647 5644 5641 5652 5660 5663 5682 5687 5704 5719 5731 5741 5751 5760 5770 5779 5783 5791 5797 5802 5803 5818 5822 5829 5833 5836 5839 5844 5850 5854 5860 5868 5869 5869 5871
5699 5688 5680 5670 5663 5658 5654 5650 5646 5638 5632 5634 5632 5635 5642 5645 5658 5665 5681 5709 5718 5729 5739 5751 5761 5770 5777 5783 5789 5794 5807 5807 5812 5820 5827 5833 5836 5837 5841 5845 5852 5857 5864 5866 5868
5688 5675 5663 5656 5651 5648 5644 5640 5632 5625 5617 5613 5614 5618 5626 5628 5642 5650 5666 5685 5700 5718 5721 5735 5744 5759 5767 5765 5777 5785 5790 5798 5811 5815 5822 5831 5836 5839 5836 5840 5844 5848 5855 5860 5866
5680 5669 5656 5650 5645 5639 5635 5629 5620 5612 5603 5600 5602 5605 5612 5616 5625 5635 5642 5655 5673 5686 5700 5715 5731 5739 5753 5765 5771 5778 5787 5793 5797 5806 5814 5826 5835 5830 5833 5834 5838 5843 5848 5853 5860
5674 5661 5650 5641 5636 5632 5627 5620 5612 5602 5595 5596 5595 5594 5600 5604 5615 5624 5631 5640 5647 5666 5677 5693 5707 5726 5738 5753 5757 5764 5775 5785 5794 5804 5808 5817 5825 5825 5829 5832 5832 5836 5841 5846 5853
5667 5656 5645 5634 5628 5623 5617 5611 5602 5595 5590 5588 5586 5585 5587 5589 5598 5607 5619 5628 5640 5648 5663 5680 5700 5709 5725 5740 5756 5757 5766 5776 5786 5793 5802 5810 5819 5819 5824 5828 5830 5832 5837 5841 5847
5661 5650 5639 5630 5622 5615 5609 5602 5596 5591 5588 5583 5582 5581 5580 5581 5584 5594 5608 5617 5630 5637 5655 5669 5686 5702 5716 5736 5752 5755 5761 5770 5776 5789 5796 5808 5814 5810 5813 5822 5826 5827 5832 5838 5844
5658 5646 5638 5626 5616 5609 5602 5597 5590 5586 5581 5577 5577 5578 5577 5576 5578 5587 5596 5608 5617 5629 5635 5651 5676 5690 5700 5720 5729 5741 5753 5762 5770 5781 5794 5803 5814 5809 5806 5814 5820 5823 5827 5831 5835
5653 5644 5633 5623 5614 5606 5599 5592 5586 5580 5575 5573 5573 5570 5571 5572 5573 5577 5584 5598 5609 5620 5636 5649 5662 5678 5696 5711 5721 5729 5740 5753 5763 5775 5785 5796 5805 5805 5802 5803 5813 5818 5822 5825 5829